Key West NAF, FL

9:13 AM EDT on July 29, 2017 (GMT -0400)
Key West Naval Air Station

Weather History for KNQX - July, 2013

Change the Weather History Date:

Friday, July 5, 2013

  Actual Average Record
Temperature  
Mean Temperature 80 °F -  
Max Temperature 87 °F 89 °F 92 °F (1993)
Min Temperature 73 °F 80 °F 72 °F (1948)
Cooling Degree Days 15    
Growing Degree Days 30 (Base 50)    
Moisture  
Dew Point 75 °F    
Average Humidity 86    
Maximum Humidity 100    
Minimum Humidity 65    
Precipitation  
Precipitation 0.55 in - - ()
Sea Level Pressure  
Sea Level Pressure 30.06 in    
Wind  
Wind Speed 13 mph (ESE)    
Max Wind Speed 25 mph    
Max Gust Speed 38 mph    
Visibility 8 miles    
Events Rain , Thunderstorm    
Averages and records for this station are not official NWS values.
T = Trace of Precipitation, MM = Missing Value Source: NWS Daily Summary

Daily Weather History Graph

Daily Weather History Graph

Search for Another Location

Airport or City:

Trip Planner

Search our weather history database for the weather conditions in past years. The results will help you decide how hot, cold, wet, or windy it might be!

Date:

Astronomy

Jul. 05, 2013 Rise Set
Actual Time 6:43 AM EDT 8:19 PM EDT
Civil Twilight 6:17 AM EDT 8:45 PM EDT
Nautical Twilight 5:47 AM EDT 9:15 PM EDT
Astronomical Twilight 5:15 AM EDT 9:47 PM EDT
Moon 4:35 AM EDT (7/5) 6:18 PM EDT (7/5)
Length of Visible Light 14h 27m
Length of Day
13h 36m
Waning Crescent, 6% of the Moon is Illuminated
Jul 5
Waning Crescent
Jul 8
New
Jul 15
First Quarter
Jul 22
Full
Jul 29
Last Quarter

Hourly Weather History & Observations

Time (EDT) Temp. Heat Index Dew Point Humidity Pressure Visibility Wind Dir Wind Speed Gust Speed Precip Events Conditions
12:53 AM 81.0 °F 86.7 °F 75.0 °F 82% 30.10 in 10.0 mi SSE 13.8 mph 23.0 mph N/A   Partly Cloudy
1:53 AM 81.0 °F 86.2 °F 73.9 °F 79% 30.07 in 10.0 mi SSE 9.2 mph - N/A   Partly Cloudy
2:53 AM 80.1 °F 84.5 °F 73.9 °F 81% 30.05 in 10.0 mi SE 9.2 mph - N/A   Clear
3:53 AM 78.1 °F - 72.0 °F 81% 30.04 in 10.0 mi SE 15.0 mph 24.2 mph N/A   Mostly Cloudy
4:53 AM 79.0 °F - 73.0 °F 82% 30.03 in 10.0 mi ESE 9.2 mph - N/A   Partly Cloudy
5:53 AM 80.1 °F 84.5 °F 73.9 °F 81% 30.03 in 10.0 mi ESE 13.8 mph - N/A   Clear
5:58 AM 80.6 °F 85.4 °F 73.4 °F 79% 30.03 in 10.0 mi SE 12.7 mph - N/A   Mostly Cloudy
6:53 AM 81.0 °F 86.2 °F 73.9 °F 79% 30.04 in 10.0 mi ESE 11.5 mph - N/A   Mostly Cloudy
7:53 AM 82.9 °F 90.2 °F 75.0 °F 77% 30.05 in 10.0 mi ESE 11.5 mph - N/A   Mostly Cloudy
8:53 AM 84.0 °F 91.9 °F 75.0 °F 74% 30.07 in 10.0 mi ESE 16.1 mph - N/A   Mostly Cloudy
9:53 AM 82.0 °F 87.9 °F 73.9 °F 76% 30.07 in 10.0 mi SSE 12.7 mph - N/A   Overcast
10:17 AM 77.0 °F - 73.4 °F 89% 30.09 in 5.0 mi ESE 25.3 mph 38.0 mph N/A Rain Light Rain
10:34 AM 78.8 °F - 77.0 °F 94% 30.09 in 5.0 mi East 21.9 mph 27.6 mph N/A Rain , Thunderstorm Light Thunderstorms and Rain
10:53 AM 77.0 °F - 75.0 °F 94% 30.09 in 7.0 mi East 16.1 mph 24.2 mph 0.03 in Rain Light Rain
11:53 AM 79.0 °F - 75.0 °F 88% 30.10 in 9.0 mi ESE 12.7 mph - 0.07 in Rain Light Rain
12:11 PM 80.6 °F 86.2 °F 75.2 °F 84% 30.10 in 10.0 mi East 15.0 mph 20.7 mph N/A   Overcast
12:53 PM 84.0 °F 93.7 °F 77.0 °F 79% 30.09 in 10.0 mi ESE 18.4 mph 25.3 mph 0.01 in   Mostly Cloudy
1:53 PM 86.0 °F 93.0 °F 73.0 °F 65% 30.08 in 10.0 mi ESE 15.0 mph 23.0 mph N/A   Mostly Cloudy
2:53 PM 87.1 °F 99.8 °F 78.1 °F 74% 30.06 in 10.0 mi ESE 13.8 mph - N/A   Mostly Cloudy
3:12 PM 78.8 °F - 73.4 °F 83% 30.08 in 1.0 mi SE 25.3 mph 33.4 mph N/A Rain Heavy Rain
3:33 PM 73.4 °F - 73.4 °F 100% 30.08 in 2.0 mi SE 12.7 mph 24.2 mph N/A Rain Rain
3:53 PM 75.9 °F - 73.9 °F 94% 30.07 in 5.0 mi ESE 9.2 mph - 0.27 in Rain Light Rain
4:31 PM 77.0 °F - 73.4 °F 89% 30.06 in 10.0 mi SE 6.9 mph - 0.00 in   Overcast
4:53 PM 77.0 °F - 73.9 °F 90% 30.05 in 10.0 mi ESE 9.2 mph - 0.00 in   Overcast
5:53 PM 79.0 °F - 75.9 °F 90% 30.04 in 10.0 mi East 11.5 mph - N/A   Overcast
6:14 PM 78.8 °F - 75.2 °F 89% 30.05 in 0.5 mi ESE 18.4 mph 25.3 mph 0.00 in Rain Heavy Rain
6:19 PM 75.2 °F - 73.4 °F 94% 30.04 in 5.0 mi East 13.8 mph 25.3 mph 0.00 in Rain Light Rain
6:29 PM 75.2 °F - 73.4 °F 94% 30.04 in 10.0 mi ESE 11.5 mph - N/A   Mostly Cloudy
6:53 PM 77.0 °F - 73.9 °F 90% 30.04 in 10.0 mi East 12.7 mph - 0.17 in   Mostly Cloudy
7:53 PM 77.0 °F - 75.0 °F 94% 30.05 in 10.0 mi East 6.9 mph - N/A   Mostly Cloudy
8:53 PM 79.0 °F - 78.1 °F 97% 30.06 in 10.0 mi East 8.1 mph - N/A   Mostly Cloudy
9:53 PM 79.0 °F - 75.9 °F 90% 30.07 in 10.0 mi East 9.2 mph - N/A   Partly Cloudy
10:49 PM 80.6 °F 87.1 °F 77.0 °F 89% 30.09 in 10.0 mi East 8.1 mph - N/A Thunderstorm Thunderstorm
10:53 PM 80.1 °F 85.8 °F 77.0 °F 90% 30.09 in 8.0 mi East 8.1 mph - N/A Thunderstorm Thunderstorm
11:51 PM 78.8 °F - 75.2 °F 89% 30.08 in 10.0 mi ESE 4.6 mph - N/A   Partly Cloudy
11:53 PM 77.0 °F - 75.9 °F 96% 30.07 in 7.0 mi East 4.6 mph - N/A   Partly Cloudy